map of ABV home
ABV - Airport
Location
City:  Abuja, Abuja Federal Capital Territory, Nigeria
Name:Nnamdi Azikiwe International Airport
ICAO:DNAA
IATA:ABV

Details
Type:Airport (Aerodrome, Airfield)
Use:Public/Civil, International (customs port of entry)
Latitude:900'24"N (9.006792)
Longitude:715'47"E (7.263172)
Datum:WGS 1984
Elevation:1123 ft (342 m)
Variation:0.75W (WMM2015 magnetic declination)
0.10 annual change
Runways:1
Longest:11842 × 197 ft (3609 × 60 m), paved

Time
Time Zone:UTC+1
Local Time:

Weather
METAR:DNAA 201700Z VRB03KT 9999 SCT008 24/19 Q1011 N0SIG
TAF:DNAA 201530Z 2018/2124 29003KT 9999 SCT007
BECMG 2100/2104 VRB02KT BKN008 PROB30
TEMPO 2103/2107 5000 -RA BR BKN005
BECMG 2107/2109 22010KT

Related Locations
Nearby:
Farthest:AAU: 12121 mi / 19506 km
Asau, WS

Find:

   beyond  
but within

Other Information
Maps:
NOTAMs:
Links:
Sources:

  
  • flag of Nigeria
  

Sectional Chart

Flight Planning
at skyvector.com

Satellite Image

Google Maps Satellite view

 

Copyright © 2004-2018 Karl L. Swartz. All rights reserved.
The Great Circle Mapper name and logo are trademarks of the Great Circle Mapper.
All other trademarks mentioned herein belong to their respective owners.
Please see credits for attibutions and further copyright information.

  Follow gcmap on Facebook Follow gcmap on Twitter Follow gcmap on Google+ GCmap on LinkedIn

hCard Microformat

Geo Microformat